CW6261 Weather Reports


Display with metric or nautical units.
time (UTC)temp
F
wind
direction
speed
MPH
gust
MPH
rain 1hr
in
rain 24hr
in
rain mn
in
humidity
%
barometer
mb
20260831214202 96 198 4.0 6.0 0.00 0.00 0.00 36 101.1
20260831213702 95 228 1.0 2.0 0.00 0.00 0.00 36 101.1
20260831213202 95 196 0.0 4.0 0.00 0.00 0.00 37 101.3
20260831212702 96 248 2.0 6.0 0.00 0.00 0.00 37 101.3
20260831212201 95 230 3.0 9.0 0.00 0.00 0.00 38 101.3
20260831211702 95 229 2.0 8.0 0.00 0.00 0.00 38 101.3
20260831211202 96 227 4.0 8.0 0.00 0.00 0.00 37 101.3
20260831210702 95 186 1.0 4.0 0.00 0.00 0.00 37 101.3
20260831210202 95 206 3.0 7.0 0.00 0.00 0.00 38 101.2
20260831205702 95 253 2.0 8.0 0.00 0.00 0.00 39 101.2
20260831204702 92 258 2.0 2.0 0.00 0.00 0.00 40 101.2
20260831204201 94 232 1.0 6.0 0.00 0.00 0.00 40 101.2
20260831203702 95 229 2.0 5.0 0.00 0.00 0.00 41 101.2
20260831203202 95 193 3.0 6.0 0.00 0.00 0.00 40 101.4
20260831202703 93 342 1.0 6.0 0.00 0.00 0.00 41 101.4
20260831202202 93 186 0.0 3.0 0.00 0.00 0.00 41 101.4
20260831201702 95 200 6.0 8.0 0.00 0.00 0.00 40 101.4
20260831201202 97 206 5.0 9.0 0.00 0.00 0.00 39 101.4
20260831200701 95 190 3.0 5.0 0.00 0.00 0.00 39 101.4
20260831200202 95 117 0.0 10.0 0.00 0.00 0.00 40 101.3
20260831195703 95 226 3.0 4.0 0.00 0.00 0.00 39 101.3
20260831194702 95 123 0.0 5.0 0.00 0.00 0.00 39 101.3
20260831193702 96 212 4.0 8.0 0.00 0.00 0.00 38 101.3
20260831192202 93 206 4.0 5.0 0.00 0.00 0.00 43 101.5
20260831191202 93 225 4.0 10.0 0.00 0.00 0.00 42 101.5
20260831190702 92 209 4.0 9.0 0.00 0.00 0.00 43 101.5
20260831190202 93 218 4.0 9.0 0.00 0.00 0.00 44 101.4
20260831185702 94 195 8.0 11.0 0.00 0.00 0.00 42 101.4
20260831184702 93 194 4.0 12.0 0.00 0.00 0.00 42 101.4
20260831184202 93 229 2.0 5.0 0.00 0.00 0.00 42 101.4
20260831183702 92 245 3.0 8.0 0.00 0.00 0.00 44 101.4
20260831183202 92 207 3.0 6.0 0.00 0.00 0.00 44 101.5
20260831181702 91 199 0.0 2.0 0.00 0.00 0.00 44 101.5
20260831181201 91 134 0.0 3.0 0.00 0.00 0.00 45 101.5
20260831180702 93 204 6.0 10.0 0.00 0.00 0.00 45 101.5
20260831180202 92 202 0.0 3.0 0.00 0.00 0.00 45 101.5
20260831175702 91 187 1.0 6.0 0.00 0.00 0.00 45 101.5
20260831175202 91 181 4.0 10.0 0.00 0.00 0.00 45 101.5
20260831174702 91 190 3.0 3.0 0.00 0.00 0.00 48 101.5
20260831173702 91 170 3.0 11.0 0.00 0.00 0.00 50 101.5
20260831173203 90 246 4.0 5.0 0.00 0.00 0.00 49 101.6
20260831172701 90 191 3.0 6.0 0.00 0.00 0.00 49 101.6
20260831172202 91 242 5.0 6.0 0.00 0.00 0.00 49 101.6
20260831171702 91 200 7.0 11.0 0.00 0.00 0.00 49 101.6
20260831171202 90 134 1.0 6.0 0.00 0.00 0.00 50 101.6
20260831170203 90 193 0.0 5.0 0.00 0.00 0.00 53 101.5
20260831165702 89 236 3.0 6.0 0.00 0.00 0.00 54 101.5
20260831165202 88 195 2.0 5.0 0.00 0.00 0.00 55 101.5
20260831164702 89 222 2.0 6.0 0.00 0.00 0.00 53 101.5
20260831164202 89 234 4.0 7.0 0.00 0.00 0.00 54 101.5
20260831163702 88 230 4.0 4.0 0.00 0.00 0.00 56 101.5
20260831163202 88 151 1.0 5.0 0.00 0.00 0.00 56 101.6
20260831162202 88 235 2.0 6.0 0.00 0.00 0.00 59 101.6
20260831161703 87 216 4.0 6.0 0.00 0.00 0.00 59 101.6
20260831161202 86 242 2.0 4.0 0.00 0.00 0.00 59 101.6
20260831160702 86 221 1.0 6.0 0.00 0.00 0.00 60 101.6
20260831160202 86 197 6.0 7.0 0.00 0.00 0.00 60 101.6
20260831155702 86 243 3.0 9.0 0.00 0.00 0.00 60 101.6
20260831155202 85 190 2.0 3.0 0.00 0.00 0.00 62 101.6
20260831154702 84 229 1.0 5.0 0.00 0.00 0.00 65 101.6
20260831154202 85 195 6.0 7.0 0.00 0.00 0.00 64 101.6
20260831153702 86 238 4.0 8.0 0.00 0.00 0.00 65 101.6
20260831153202 84 256 2.0 5.0 0.00 0.00 0.00 66 101.6
20260831152702 84 214 4.0 6.0 0.00 0.00 0.00 67 101.6
20260831152202 84 245 4.0 6.0 0.00 0.00 0.00 67 101.6
20260831151702 84 175 3.0 9.0 0.00 0.00 0.00 68 101.6
20260831150702 82 240 3.0 4.0 0.00 0.00 0.00 73 101.6
20260831150203 81 238 2.0 6.0 0.00 0.00 0.00 74 101.6
20260831145702 81 260 4.0 4.0 0.00 0.00 0.00 77 101.6
20260831144703 82 179 3.0 10.0 0.00 0.00 0.00 75 101.6
20260831144202 81 269 3.0 8.0 0.00 0.00 0.00 76 101.6
20260831143703 81 214 5.0 6.0 0.00 0.00 0.00 77 101.6
20260831143202 81 184 4.0 7.0 0.00 0.00 0.00 79 101.5
20260831142702 81 180 5.0 7.0 0.00 0.00 0.00 79 101.5
20260831142203 81 166 4.0 7.0 0.00 0.00 0.00 80 101.5
20260831141202 80 264 2.0 4.0 0.00 0.00 0.00 83 101.5
20260831140701 80 228 2.0 6.0 0.00 0.00 0.00 84 101.5
20260831140202 80 192 2.0 6.0 0.00 0.00 0.00 84 101.5
20260831135202 79 236 3.0 7.0 0.00 0.00 0.00 85 101.5
20260831134702 79 248 3.0 4.0 0.00 0.00 0.00 86 101.5
20260831134202 79 199 3.0 6.0 0.00 0.00 0.00 86 101.5
20260831133702 79 266 2.0 4.0 0.00 0.00 0.00 87 101.5
20260831133202 79 252 1.0 8.0 0.00 0.00 0.00 87 101.5
20260831132702 79 272 2.0 4.0 0.00 0.00 0.00 87 101.5
20260831132202 78 189 4.0 5.0 0.00 0.00 0.00 88 101.5
20260831131702 78 165 2.0 7.0 0.00 0.00 0.00 88 101.5
20260831131202 78 221 2.0 5.0 0.00 0.00 0.00 89 101.5
20260831130702 78 213 3.0 4.0 0.00 0.00 0.00 89 101.5
20260831125202 77 206 2.0 2.0 0.00 0.00 0.00 89 101.5
20260831124202 77 191 1.0 5.0 0.00 0.00 0.00 90 101.5
20260831123702 77 215 2.0 3.0 0.00 0.00 0.00 89 101.5
20260831123202 77 256 3.0 4.0 0.00 0.00 0.00 89 101.5
20260831122702 77 239 1.0 3.0 0.00 0.00 0.00 90 101.5
20260831122201 77 172 2.0 5.0 0.00 0.00 0.00 89 101.5
20260831121202 77 219 2.0 4.0 0.00 0.00 0.00 89 101.4
20260831120702 77 215 2.0 5.0 0.00 0.00 0.00 89 101.4
20260831120202 77 249 2.0 6.0 0.00 0.00 0.00 89 101.4
20260831115702 77 220 3.0 6.0 0.00 0.00 0.00 89 101.4
20260831115202 77 234 5.0 5.0 0.00 0.00 0.00 89 101.4
20260831114702 77 178 4.0 9.0 0.00 0.00 0.00 89 101.4
20260831114201 77 211 2.0 5.0 0.00 0.00 0.00 88 101.4
20260831113702 77 279 3.0 3.0 0.00 0.00 0.00 88 101.4
20260831113202 77 191 3.0 5.0 0.00 0.00 0.00 88 101.4
20260831112701 77 211 2.0 4.0 0.00 0.00 0.00 88 101.4
20260831112202 77 222 2.0 4.0 0.00 0.00 0.00 87 101.4
20260831111702 77 242 4.0 5.0 0.00 0.00 0.00 87 101.4
20260831111202 77 205 2.0 4.0 0.00 0.00 0.00 87 101.4
20260831110702 78 223 2.0 4.0 0.00 0.00 0.00 87 101.4
20260831110202 78 216 4.0 6.0 0.00 0.00 0.00 86 101.4
20260831105702 78 255 2.0 4.0 0.00 0.00 0.00 87 101.4
20260831105202 78 202 2.0 4.0 0.00 0.00 0.00 87 101.4
20260831104701 78 224 1.0 6.0 0.00 0.00 0.00 87 101.4
20260831104202 78 228 4.0 6.0 0.00 0.00 0.00 86 101.4
20260831103702 78 189 2.0 5.0 0.00 0.00 0.00 86 101.4
20260831102202 78 183 5.0 6.0 0.00 0.00 0.00 86 101.4
20260831101202 78 220 3.0 6.0 0.00 0.00 0.00 86 101.4
20260831100702 78 238 3.0 5.0 0.00 0.00 0.00 86 101.4
20260831095702 78 218 3.0 8.0 0.00 0.00 0.00 86 101.4
20260831095202 78 269 3.0 5.0 0.00 0.00 0.00 86 101.4
20260831094201 78 199 1.0 4.0 0.00 0.00 0.00 86 101.4
20260831093702 78 249 1.0 5.0 0.00 0.00 0.00 86 101.4
20260831093202 78 225 5.0 6.0 0.00 0.00 0.00 86 101.4
20260831092702 78 191 2.0 8.0 0.00 0.00 0.00 86 101.4
20260831092203 78 213 2.0 5.0 0.00 0.00 0.00 86 101.4
20260831091202 78 155 1.0 7.0 0.00 0.00 0.00 85 101.4
20260831090702 78 211 3.0 6.0 0.00 0.00 0.00 85 101.4
20260831090202 78 193 4.0 6.0 0.00 0.00 0.00 85 101.4
20260831085702 78 255 2.0 4.0 0.00 0.00 0.00 85 101.4
20260831085202 78 203 2.0 5.0 0.00 0.00 0.00 85 101.4
20260831084202 79 222 0.0 5.0 0.00 0.00 0.00 84 101.4
20260831083701 78 228 5.0 8.0 0.00 0.00 0.00 83 101.4
20260831083202 78 224 3.0 5.0 0.00 0.00 0.00 83 101.4
20260831082202 79 237 4.0 4.0 0.00 0.00 0.00 80 101.4
20260831081702 79 238 4.0 6.0 0.00 0.00 0.00 79 101.4
20260831081202 79 210 2.0 6.0 0.00 0.00 0.00 79 101.4
20260831080702 79 266 2.0 3.0 0.00 0.00 0.00 79 101.4
20260831080202 79 221 1.0 2.0 0.00 0.00 0.00 79 101.4
20260831075702 79 211 1.0 5.0 0.00 0.00 0.00 78 101.4
20260831074702 79 204 2.0 6.0 0.00 0.00 0.00 77 101.4
20260831073202 80 223 2.0 4.0 0.00 0.00 0.00 76 101.4
20260831072702 80 237 2.0 8.0 0.00 0.00 0.00 75 101.4
20260831072203 80 230 3.0 6.0 0.00 0.00 0.00 75 101.4
20260831071702 80 234 2.0 7.0 0.00 0.00 0.00 74 101.4
20260831071203 81 245 2.0 5.0 0.00 0.00 0.00 74 101.4
20260831070702 81 194 5.0 6.0 0.00 0.00 0.00 73 101.4
20260831070202 81 157 3.0 11.0 0.00 0.00 0.00 73 101.4
20260831065702 81 217 3.0 9.0 0.00 0.00 0.00 72 101.4
20260831064702 81 227 2.0 8.0 0.00 0.00 0.00 71 101.4
20260831064202 81 208 4.0 7.0 0.00 0.00 0.00 71 101.4
20260831063702 81 237 3.0 7.0 0.00 0.00 0.00 71 101.4
20260831062202 81 208 3.0 5.0 0.00 0.00 0.00 71 101.4
20260831061702 82 196 4.0 4.0 0.00 0.00 0.00 71 101.4
20260831061202 82 204 1.0 3.0 0.00 0.00 0.00 71 101.4
20260831060702 82 212 2.0 3.0 0.00 0.00 0.00 70 101.4
20260831055702 82 188 2.0 5.0 0.00 0.00 0.00 69 101.4
20260831055201 82 187 7.0 7.0 0.00 0.00 0.00 68 101.4
20260831054702 83 199 4.0 5.0 0.00 0.00 0.00 68 101.4
20260831054202 83 225 3.0 5.0 0.00 0.00 0.00 67 101.4
20260831053702 83 229 2.0 6.0 0.00 0.00 0.00 66 101.4
20260831053202 83 180 1.0 6.0 0.00 0.00 0.00 66 101.4
20260831052202 83 185 4.0 8.0 0.00 0.00 0.00 64 101.4
20260831050702 84 199 2.0 4.0 0.00 0.00 0.00 63 101.4
20260831050201 84 227 4.0 9.0 0.00 0.00 0.00 62 101.3
20260831045704 84 247 2.0 4.0 0.00 0.00 0.00 62 101.3
20260831044202 85 173 4.0 10.0 0.00 0.00 0.00 60 101.3
20260831043202 85 204 2.0 8.0 0.00 0.00 0.00 59 101.3
20260831042702 85 206 3.0 9.0 0.00 0.00 0.00 59 101.4
20260831041702 86 163 7.0 10.0 0.00 0.00 0.00 58 101.4
20260831041203 86 200 3.0 9.0 0.00 0.00 0.00 58 101.4
20260831040702 86 193 7.0 7.0 0.00 0.00 0.00 58 101.4
20260831040201 86 184 8.0 10.0 0.00 0.00 0.00 58 101.3
20260831035704 86 188 1.0 8.0 0.00 0.00 0.00 58 101.3
20260831035202 86 240 2.0 9.0 0.00 0.00 0.00 58 101.3
20260831034702 86 206 5.0 9.0 0.00 0.00 0.00 58 101.3
20260831034201 86 182 6.0 11.0 0.00 0.00 0.00 58 101.3
20260831033702 86 184 1.0 8.0 0.00 0.00 0.00 57 101.3
20260831033202 86 211 2.0 7.0 0.00 0.00 0.00 57 101.3
20260831032702 87 188 6.0 9.0 0.00 0.00 0.00 57 101.3
20260831032202 87 154 1.0 15.0 0.00 0.00 0.00 57 101.3
20260831031702 87 184 3.0 7.0 0.00 0.00 0.00 57 101.3
20260831031202 87 172 2.0 8.0 0.00 0.00 0.00 57 101.3
20260831030702 87 199 3.0 7.0 0.00 0.00 0.00 57 101.3
20260831030203 87 173 3.0 9.0 0.00 0.00 0.00 57 101.2
20260831025702 87 199 3.0 8.0 0.00 0.00 0.00 56 101.2
20260831024702 87 216 8.0 10.0 0.00 0.00 0.00 56 101.2
20260831024202 88 178 3.0 5.0 0.00 0.00 0.00 56 101.2
20260831023702 88 140 2.0 6.0 0.00 0.00 0.00 55 101.2
20260831023202 88 203 3.0 8.0 0.00 0.00 0.00 55 101.2
20260831022701 88 199 4.0 5.0 0.00 0.00 0.00 52 101.2
20260831022202 89 233 1.0 8.0 0.00 0.00 0.00 52 101.2
20260831021702 89 147 2.0 12.0 0.00 0.00 0.00 51 101.2
20260831021202 89 217 4.0 6.0 0.00 0.00 0.00 49 101.2
20260831020702 89 170 3.0 11.0 0.00 0.00 0.00 48 101.2
20260831020202 89 199 2.0 2.0 0.00 0.00 0.00 46 101.2
20260831015702 89 135 0.0 1.0 0.00 0.00 0.00 45 101.2
20260831015201 89 208 0.0 1.0 0.00 0.00 0.00 45 101.2
20260831014702 89 195 0.0 1.0 0.00 0.00 0.00 45 101.1
20260831014202 89 249 0.0 3.0 0.00 0.00 0.00 44 101.1
20260831013702 90 224 0.0 1.0 0.00 0.00 0.00 44 101.1
20260831013202 90 142 0.0 1.0 0.00 0.00 0.00 44 101.1
20260831012702 90 212 0.0 1.0 0.00 0.00 0.00 44 101.1
20260831012202 90 230 0.0 1.0 0.00 0.00 0.00 43 101.1
20260831011702 90 225 0.0 1.0 0.00 0.00 0.00 43 101.1
20260831010702 91 236 0.0 1.0 0.00 0.00 0.00 43 101.1
20260831005702 91 224 0.0 1.0 0.00 0.00 0.00 42 101.1
20260831005202 92 225 0.0 1.0 0.00 0.00 0.00 41 101.1
20260831004703 92 325 0.0 4.0 0.00 0.00 0.00 41 101.1
20260831003702 92 130 1.0 4.0 0.00 0.00 0.00 41 101.1
20260831003202 92 164 0.0 3.0 0.00 0.00 0.00 40 101.1
20260831002702 92 249 0.0 2.0 0.00 0.00 0.00 41 101.1
20260831002203 92 269 0.0 1.0 0.00 0.00 0.00 41 101.1
20260831001702 92 246 0.0 1.0 0.00 0.00 0.00 40 101.1
20260831001202 93 195 0.0 1.0 0.00 0.00 0.00 41 101.1
20260831000702 93 220 0.0 5.0 0.00 0.00 0.00 41 101.1
20260830235701 92 217 0.0 1.0 0.00 0.00 0.00 41 101.0
20260830235202 93 237 0.0 1.0 0.00 0.00 0.00 41 101.0
20260830234702 93 299 0.0 1.0 0.00 0.00 0.00 41 101.0
20260830234202 93 224 0.0 1.0 0.00 0.00 0.00 41 101.0
20260830233702 93 214 1.0 3.0 0.00 0.00 0.00 40 101.0
20260830233202 93 194 2.0 4.0 0.00 0.00 0.00 40 101.1
20260830232702 94 250 1.0 5.0 0.00 0.00 0.00 40 101.1
20260830231202 95 129 0.0 1.0 0.00 0.00 0.00 38 101.1
20260830230703 96 214 1.0 4.0 0.00 0.00 0.00 38 101.1
20260830230202 96 308 0.0 2.0 0.00 0.00 0.00 38 101.0
20260830225703 96 187 1.0 4.0 0.00 0.00 0.00 37 101.0
20260830225202 95 89 0.0 2.0 0.00 0.00 0.00 37 101.0
20260830224702 94 158 1.0 1.0 0.00 0.00 0.00 37 101.0
20260830223702 96 205 0.0 2.0 0.00 0.00 0.00 35 101.0
20260830223202 96 193 0.0 2.0 0.00 0.00 0.00 36 101.2
20260830222702 97 215 3.0 6.0 0.00 0.00 0.00 36 101.2
20260830222201 97 218 1.0 3.0 0.00 0.00 0.00 36 101.2
20260830221702 96 254 0.0 3.0 0.00 0.00 0.00 37 101.2
20260830221202 96 215 3.0 3.0 0.00 0.00 0.00 36 101.2
20260830220701 96 251 4.0 5.0 0.00 0.00 0.00 37 101.2
20260830220202 95 7 1.0 5.0 0.00 0.00 0.00 37 101.1
20260830215703 96 184 5.0 6.0 0.00 0.00 0.00 37 101.1
20260830214702 95 222 2.0 6.0 0.00 0.00 0.00 38 101.1